• In Hungary
  • List of Countries
  • For 7 days
  • Water Temperature
  • Satellite Maps
  • Weather Map
  • News
  • Weather Widgets
  • user-avatar
    Login

    Hourly Weather Pervomayskoe

    Today, 23 July, Monday

    Time Temperature Precipitation Wind Pressure Humidity
    00:00 +18°C° 0 mm 7 mps 741 mmHg 47%
    01:00 +17°C° 0 mm 7 mps 741 mmHg 48%
    02:00 +17°C° 0 mm 7 mps 742 mmHg 50%
    03:00 +16°C° 0 mm 7 mps 742 mmHg 52%
    04:00 +16°C° 0 mm 8 mps 742 mmHg 53%
    05:00 +16°C° 0 mm 8 mps 742 mmHg 53%
    06:00 +16°C° 0 mm 8 mps 743 mmHg 53%
    07:00 +17°C° 0 mm 7 mps 743 mmHg 53%
    08:00 +18°C° 0 mm 7 mps 743 mmHg 49%
    09:00 +20°C° 0 mm 7 mps 743 mmHg 45%
    10:00 +22°C° 0 mm 7 mps 743 mmHg 40%
    11:00 +23°C° 0 mm 7 mps 743 mmHg 37%
    12:00 +24°C° 0 mm 6 mps 743 mmHg 34%
    13:00 +26°C° 0 mm 6 mps 743 mmHg 31%
    14:00 +27°C° 0 mm 6 mps 743 mmHg 30%
    15:00 +27°C° 0 mm 6 mps 743 mmHg 28%
    16:00 +28°C° 0 mm 6 mps 743 mmHg 27%
    17:00 +27°C° 0 mm 6 mps 743 mmHg 29%
    18:00 +26°C° 0 mm 5 mps 743 mmHg 32%
    19:00 +25°C° 0 mm 5 mps 743 mmHg 35%
    20:00 +23°C° 0 mm 5 mps 743 mmHg 39%
    21:00 +21°C° 0 mm 5 mps 743 mmHg 43%
    22:00 +20°C° 0 mm 5 mps 744 mmHg 47%
    23:00 +19°C° 0 mm 5 mps 744 mmHg 48%

    Tomorrow, 24 July, Tuesday

    Time Temperature Precipitation Wind Pressure Humidity
    00:00 +19°C° 0 mm 5 mps 744 mmHg 49%
    01:00 +17°C° 0 mm 5 mps 744 mmHg 50%
    02:00 +17°C° 0 mm 5 mps 744 mmHg 53%
    03:00 +17°C° 0 mm 4 mps 744 mmHg 55%
    04:00 +17°C° 0 mm 4 mps 744 mmHg 57%
    05:00 +18°C° 0 mm 4 mps 745 mmHg 56%
    06:00 +19°C° 0 mm 4 mps 745 mmHg 55%
    07:00 +20°C° 0 mm 4 mps 745 mmHg 54%
    08:00 +21°C° 0 mm 4 mps 745 mmHg 49%
    09:00 +23°C° 0 mm 4 mps 746 mmHg 43%
    10:00 +26°C° 0 mm 5 mps 746 mmHg 38%
    11:00 +27°C° 0 mm 5 mps 746 mmHg 36%
    12:00 +29°C° 0 mm 5 mps 745 mmHg 33%
    13:00 +30°C° 0 mm 5 mps 745 mmHg 31%
    14:00 +30°C° 0 mm 5 mps 745 mmHg 31%
    15:00 +32°C° 0 mm 5 mps 745 mmHg 30%
    16:00 +32°C° 0 mm 5 mps 744 mmHg 30%
    17:00 +30°C° 0 mm 5 mps 744 mmHg 33%
    18:00 +30°C° 0 mm 4 mps 744 mmHg 36%
    19:00 +29°C° 0 mm 4 mps 744 mmHg 39%
    20:00 +28°C° 0 mm 4 mps 745 mmHg 43%
    21:00 +26°C° 0 mm 5 mps 745 mmHg 47%
    22:00 +25°C° 0 mm 5 mps 745 mmHg 51%
    23:00 +23°C° 0 mm 5 mps 745 mmHg 53%

    Day after tomorrow, 25 July, Wednesday

    Time Temperature Precipitation Wind Pressure Humidity
    00:00 +23°C° 0 mm 5 mps 745 mmHg 55%
    01:00 +22°C° 0 mm 5 mps 745 mmHg 58%
    02:00 +22°C° 0 mm 4 mps 745 mmHg 58%
    03:00 +21°C° 0 mm 4 mps 746 mmHg 59%
    04:00 +21°C° 0 mm 4 mps 746 mmHg 60%
    05:00 +22°C° 0 mm 5 mps 746 mmHg 57%
    06:00 +23°C° 0 mm 5 mps 746 mmHg 54%
    07:00 +25°C° 0 mm 5 mps 746 mmHg 51%
    08:00 +26°C° 0 mm 5 mps 747 mmHg 46%
    09:00 +28°C° 0 mm 5 mps 747 mmHg 40%
    10:00 +30°C° 0 mm 6 mps 747 mmHg 35%
    11:00 +32°C° 0 mm 6 mps 747 mmHg 33%
    12:00 +32°C° 0 mm 6 mps 747 mmHg 30%
    13:00 +33°C° 0 mm 6 mps 747 mmHg 28%
    14:00 +33°C° 0 mm 6 mps 747 mmHg 28%
    15:00 +33°C° 0 mm 6 mps 746 mmHg 28%
    16:00 +33°C° 0 mm 6 mps 746 mmHg 28%
    17:00 +32°C° 0 mm 5 mps 746 mmHg 31%
    18:00 +30°C° 0 mm 5 mps 746 mmHg 35%
    19:00 +29°C° 0 mm 5 mps 746 mmHg 38%
    20:00 +28°C° 0 mm 5 mps 747 mmHg 42%
    21:00 +27°C° 0 mm 5 mps 747 mmHg 46%
    22:00 +25°C° 0 mm 4 mps 747 mmHg 50%
    23:00 +25°C° 0 mm 4 mps 747 mmHg 52%

    26 July, Thursday

    Time Temperature Precipitation Wind Pressure Humidity
    00:00 +23°C° 0 mm 4 mps 747 mmHg 54%
    01:00 +22°C° 0 mm 3 mps 747 mmHg 57%
    02:00 +22°C° 0 mm 4 mps 747 mmHg 58%
    03:00 +21°C° 0 mm 4 mps 747 mmHg 60%
    04:00 +21°C° 0 mm 4 mps 747 mmHg 62%
    05:00 +21°C° 0 mm 4 mps 747 mmHg 59%
    06:00 +22°C° 0 mm 5 mps 748 mmHg 57%
    07:00 +23°C° 0 mm 5 mps 748 mmHg 54%
    08:00 +26°C° 0 mm 6 mps 748 mmHg 48%
    09:00 +27°C° 0 mm 6 mps 748 mmHg 43%
    10:00 +29°C° 0 mm 6 mps 748 mmHg 37%
    11:00 +30°C° 0 mm 6 mps 748 mmHg 34%
    12:00 +30°C° 0 mm 6 mps 748 mmHg 31%
    13:00 +32°C° 0 mm 6 mps 748 mmHg 28%
    14:00 +32°C° 0 mm 6 mps 748 mmHg 28%
    15:00 +32°C° 0 mm 6 mps 747 mmHg 28%
    16:00 +33°C° 0 mm 6 mps 747 mmHg 27%
    17:00 +32°C° 0 mm 6 mps 747 mmHg 30%
    18:00 +30°C° 0 mm 5 mps 747 mmHg 32%
    19:00 +29°C° 0 mm 5 mps 747 mmHg 34%
    20:00 +28°C° 0 mm 4 mps 747 mmHg 38%
    21:00 +26°C° 0 mm 4 mps 747 mmHg 41%
    22:00 +25°C° 0 mm 4 mps 748 mmHg 44%
    23:00 +23°C° 0 mm 4 mps 748 mmHg 47%

    27 July, Friday

    Time Temperature Precipitation Wind Pressure Humidity
    00:00 +23°C° 0 mm 4 mps 748 mmHg 50%
    01:00 +22°C° 0 mm 4 mps 748 mmHg 53%
    02:00 +22°C° 0 mm 4 mps 748 mmHg 55%
    03:00 +21°C° 0 mm 4 mps 748 mmHg 57%
    04:00 +21°C° 0 mm 4 mps 748 mmHg 59%
    05:00 +22°C° 0 mm 4 mps 748 mmHg 57%
    06:00 +23°C° 0 mm 5 mps 748 mmHg 56%
    07:00 +25°C° 0 mm 5 mps 748 mmHg 54%
    08:00 +27°C° 0 mm 5 mps 748 mmHg 47%
    09:00 +29°C° 0 mm 5 mps 748 mmHg 41%
    10:00 +32°C° 0 mm 5 mps 748 mmHg 34%
    11:00 +32°C° 0 mm 5 mps 748 mmHg 33%
    12:00 +32°C° 0 mm 5 mps 748 mmHg 32%
    13:00 +33°C° 0 mm 5 mps 748 mmHg 31%
    14:00 +33°C° 0 mm 5 mps 747 mmHg 30%
    15:00 +33°C° 0 mm 5 mps 747 mmHg 30%
    16:00 +33°C° 0 mm 4 mps 747 mmHg 29%
    17:00 +33°C° 0 mm 4 mps 747 mmHg 32%
    18:00 +32°C° 0 mm 4 mps 747 mmHg 34%
    19:00 +30°C° 0 mm 3 mps 746 mmHg 36%
    20:00 +29°C° 0 mm 3 mps 746 mmHg 39%
    21:00 +27°C° 0 mm 3 mps 746 mmHg 42%
    22:00 +26°C° 0 mm 3 mps 746 mmHg 44%
    23:00 +25°C° 0 mm 3 mps 746 mmHg 46%

    28 July, Saturday

    Time Temperature Precipitation Wind Pressure Humidity
    00:00 +25°C° 0 mm 3 mps 746 mmHg 47%
    01:00 +24°C° 0 mm 3 mps 746 mmHg 49%
    02:00 +24°C° 0 mm 3 mps 746 mmHg 52%
    03:00 +22°C° 0 mm 3 mps 746 mmHg 54%
    04:00 +22°C° 0 mm 3 mps 746 mmHg 57%
    05:00 +24°C° 0 mm 3 mps 746 mmHg 54%
    06:00 +25°C° 0 mm 3 mps 746 mmHg 51%
    07:00 +26°C° 0 mm 3 mps 746 mmHg 48%
    08:00 +27°C° 0 mm 3 mps 746 mmHg 43%
    09:00 +29°C° 0 mm 3 mps 746 mmHg 37%
    10:00 +31°C° 0 mm 3 mps 746 mmHg 31%
    11:00 +33°C° 0 mm 3 mps 746 mmHg 30%
    12:00 +33°C° 0 mm 3 mps 746 mmHg 28%
    13:00 +33°C° 0 mm 3 mps 745 mmHg 27%
    14:00 +34°C° 0 mm 3 mps 745 mmHg 27%
    15:00 +34°C° 0 mm 3 mps 745 mmHg 27%
    16:00 +34°C° 0 mm 3 mps 745 mmHg 26%
    17:00 +33°C° 0 mm 3 mps 744 mmHg 29%
    18:00 +31°C° 0 mm 3 mps 744 mmHg 32%
    19:00 +30°C° 0 mm 3 mps 744 mmHg 35%
    20:00 +29°C° 0 mm 3 mps 744 mmHg 37%
    21:00 +28°C° 0 mm 3 mps 744 mmHg 40%
    22:00 +27°C° 0 mm 3 mps 744 mmHg 42%
    23:00 +26°C° 0 mm 3 mps 744 mmHg 44%
    Show more